Radiation Dose measured at exhaust stack monitor of Fukushima Daiichi Nuclear Power Station
Date,Time,Unit 5 6 shared exhaust cylinders,Wind Direction,Wind Velocity(m/s)
2024/07/15,00:00,3.5,northwest,4.7
2024/07/15,00:10,3.5,northwest,5.2
2024/07/15,00:20,3.7,west-northwest,5.8
2024/07/15,00:30,3.7,northwest,5.0
2024/07/15,00:40,3.6,northwest,5.0
2024/07/15,00:50,3.7,north-northwest,5.7
2024/07/15,01:00,3.6,north-northwest,4.8
2024/07/15,01:10,3.5,northwest,3.6
2024/07/15,01:20,3.5,northwest,2.3
2024/07/15,01:30,3.7,northwest,2.8
2024/07/15,01:40,3.6,north-northwest,3.7
2024/07/15,01:50,3.6,northwest,3.7
2024/07/15,02:00,3.6,north-northwest,3.2
2024/07/15,02:10,3.8,north-northwest,3.5
2024/07/15,02:20,3.5,north-northwest,3.2
2024/07/15,02:30,3.9,north-northwest,3.1
2024/07/15,02:40,3.6,north,4.2
2024/07/15,02:50,3.6,north-northwest,2.0
2024/07/15,03:00,3.7,north-northwest,2.9
2024/07/15,03:10,3.7,north-northwest,3.1
2024/07/15,03:20,3.6,north-northwest,2.6
2024/07/15,03:30,3.6,north-northwest,2.5
2024/07/15,03:40,3.6,north-northwest,2.8
2024/07/15,03:50,3.4,north,3.2
2024/07/15,04:00,3.7,north-northwest,3.6
2024/07/15,04:10,3.6,north-northwest,3.1
2024/07/15,04:20,3.7,north-northwest,4.5
2024/07/15,04:30,3.6,north-northwest,3.9
2024/07/15,04:40,3.7,north-northwest,4.5
2024/07/15,04:50,3.6,north-northwest,4.1
2024/07/15,05:00,3.5,north-northwest,3.4
2024/07/15,05:10,3.6,north-northwest,3.4
2024/07/15,05:20,3.6,north-northwest,4.0
2024/07/15,05:30,3.7,northwest,2.3
2024/07/15,05:40,3.7,northwest,3.1
2024/07/15,05:50,3.6,northwest,2.3
2024/07/15,06:00,3.7,north-northwest,3.2
2024/07/15,06:10,3.7,north-northwest,3.6
2024/07/15,06:20,3.6,north-northwest,3.8
2024/07/15,06:30,3.7,north-northwest,4.0
2024/07/15,06:40,3.7,north-northwest,3.8
2024/07/15,06:50,3.5,north,4.0
2024/07/15,07:00,3.6,north,3.7
2024/07/15,07:10,3.8,north,4.4
2024/07/15,07:20,3.7,north,5.1
2024/07/15,07:30,3.6,north-northwest,4.9
2024/07/15,07:40,3.7,north-northwest,5.2
2024/07/15,07:50,3.6,north,5.6
2024/07/15,08:00,3.5,north,5.7
2024/07/15,08:10,3.6,north,5.1
2024/07/15,08:20,3.5,north,4.6
2024/07/15,08:30,3.7,north-northwest,5.2
2024/07/15,08:40,3.5,north-northwest,4.8
2024/07/15,08:50,3.6,north-northwest,5.3
2024/07/15,09:00,3.6,east,1.7
2024/07/15,09:10,3.5,-,CALM
2024/07/15,09:20,3.7,north,6.8
2024/07/15,09:30,3.6,north-northwest,3.6
2024/07/15,09:40,3.6,north-northwest,2.3
2024/07/15,09:50,3.7,north,2.9
2024/07/15,10:00,3.5,north-northwest,3.7
2024/07/15,10:10,3.7,northwest,4.7
2024/07/15,10:20,3.6,north-northwest,5.0
2024/07/15,10:30,3.6,north,4.6
2024/07/15,10:40,3.7,north-northwest,4.7
2024/07/15,10:50,3.7,north-northwest,4.9
2024/07/15,11:00,3.6,north,4.8
2024/07/15,11:10,3.6,north,4.9
2024/07/15,11:20,3.6,north-northwest,4.2
2024/07/15,11:30,3.7,north-northwest,4.2
2024/07/15,11:40,3.7,north-northwest,3.4
2024/07/15,11:50,3.8,northwest,3.0
2024/07/15,12:00,3.7,north-northwest,2.3
2024/07/15,12:10,3.7,northwest,2.0
2024/07/15,12:20,3.6,west-northwest,1.9
2024/07/15,12:30,3.7,north,2.0
2024/07/15,12:40,3.6,north-northwest,1.5
2024/07/15,12:50,3.6,north-northeast,1.4
2024/07/15,13:00,3.6,northeast,1.5
2024/07/15,13:10,3.6,north-northeast,2.6
2024/07/15,13:20,3.7,north-northeast,3.6
2024/07/15,13:30,3.6,north-northeast,3.9
2024/07/15,13:40,3.6,north-northeast,4.9
2024/07/15,13:50,3.7,north-northeast,5.1
2024/07/15,14:00,3.7,north-northeast,4.4
2024/07/15,14:10,3.4,north-northeast,4.0
2024/07/15,14:20,3.7,northeast,3.5
2024/07/15,14:30,3.6,north-northeast,4.4
2024/07/15,14:40,3.6,north-northeast,5.0
2024/07/15,14:50,3.6,north-northeast,4.4
2024/07/15,15:00,3.5,north-northeast,4.1
2024/07/15,15:10,3.6,north-northeast,3.4
2024/07/15,15:20,3.7,north-northeast,4.1
2024/07/15,15:30,3.8,north-northeast,4.5
2024/07/15,15:40,3.7,north-northeast,4.5
2024/07/15,15:50,3.7,north,5.1
2024/07/15,16:00,3.7,north,4.4
2024/07/15,16:10,3.7,north-northeast,4.4
2024/07/15,16:20,3.8,north-northeast,3.7
2024/07/15,16:30,3.7,north-northeast,3.5
2024/07/15,16:40,3.5,north-northeast,3.0
2024/07/15,16:50,3.6,north-northeast,2.6
2024/07/15,17:00,3.7,north,2.6
2024/07/15,17:10,3.6,north-northeast,1.5
2024/07/15,17:20,3.7,north-northeast,1.5
2024/07/15,17:30,3.6,north-northeast,1.7
2024/07/15,17:40,3.5,north-northeast,2.0
2024/07/15,17:50,3.5,north-northeast,1.7
2024/07/15,18:00,3.8,northeast,0.9
2024/07/15,18:10,3.4,northeast,0.6
2024/07/15,18:20,3.6,-,CALM
2024/07/15,18:30,3.5,west-southwest,0.6
2024/07/15,18:40,3.5,south-southwest,0.9
2024/07/15,18:50,3.6,southwest,0.9
2024/07/15,19:00,3.6,west-southwest,0.8
2024/07/15,19:10,3.6,-,CALM
2024/07/15,19:20,3.5,-,CALM
2024/07/15,19:30,3.6,west-northwest,0.6
2024/07/15,19:40,3.6,northwest,0.9
2024/07/15,19:50,3.5,west-northwest,1.1
2024/07/15,20:00,3.5,west-northwest,1.4
2024/07/15,20:10,3.4,northwest,1.9
2024/07/15,20:20,3.6,northwest,1.9
2024/07/15,20:30,3.6,northwest,1.5
2024/07/15,20:40,3.7,northwest,2.3
2024/07/15,20:50,3.6,northwest,2.8
2024/07/15,21:00,3.7,northwest,2.6
2024/07/15,21:10,3.5,northwest,1.5
2024/07/15,21:20,3.6,north-northwest,1.1
2024/07/15,21:30,3.6,north-northeast,1.2
2024/07/15,21:40,3.8,southwest,0.6
2024/07/15,21:50,3.6,south-southwest,2.9
2024/07/15,22:00,3.7,south-southwest,3.6
2024/07/15,22:10,3.6,south,2.9
2024/07/15,22:20,3.7,south-southeast,2.5
2024/07/15,22:30,3.6,southeast,1.5
2024/07/15,22:40,3.7,southeast,0.6
2024/07/15,22:50,3.8,north,1.1
2024/07/15,23:00,3.5,north,0.9
2024/07/15,23:10,3.6,north,2.0
2024/07/15,23:20,3.6,north-northwest,1.5
2024/07/15,23:30,3.7,northwest,1.7
2024/07/15,23:40,3.7,northwest,2.3
2024/07/15,23:50,3.8,north-northwest,2.3
